EXS1829 EGGD-LEGE

Flight info

Callsign EXS1829
Flight time 1h 42m
Altitude 33000
Route EXMOR DCT TINAN DCT MANIG DCT OTOFE DCT USODA UM616 LUGEN UM184 TUPAR DCT POKET DCT GAI DCT KANIG
Aircraft B733/M-SDE2E3FHIRW/S

Departure

Time 2026-05-07 05:13
Airport Bristol Airport (EGGD)

Arrival

Time 2026-05-07 06:55
Airport Girona-Costa Brava Airport (LEGE)
Time Latitude Longitude Altitude Speed Heading
2026-05-07 04:54 51.38552 -2.71144 602 ft 0 kts 356°
2026-05-07 05:08 51.38534 -2.71143 603 ft 6 kts 356°
2026-05-07 05:08 51.38477 -2.71140 605 ft 3 kts 353°
2026-05-07 05:08 51.38471 -2.71123 605 ft 0 kts 266°
2026-05-07 05:08 51.38471 -2.71126 605 ft 0 kts 266°
2026-05-07 05:09 51.38469 -2.71159 605 ft 7 kts 261°
2026-05-07 05:09 51.38456 -2.71316 606 ft 20 kts 262°
2026-05-07 05:09 51.38439 -2.71591 606 ft 29 kts 265°
2026-05-07 05:09 51.38437 -2.71960 612 ft 35 kts 264°
2026-05-07 05:10 51.38418 -2.72351 617 ft 34 kts 266°
2026-05-07 05:10 51.38402 -2.72724 619 ft 33 kts 266°
2026-05-07 05:10 51.38388 -2.73111 609 ft 35 kts 266°
2026-05-07 05:10 51.38307 -2.73346 601 ft 23 kts 176°
2026-05-07 05:11 51.38213 -2.73267 606 ft 0 kts 82°
2026-05-07 05:11 51.38213 -2.73268 606 ft 0 kts 82°
2026-05-07 05:11 51.38214 -2.73264 606 ft 3 kts 82°
2026-05-07 05:12 51.38229 -2.72955 619 ft 58 kts 87°
2026-05-07 05:12 51.38265 -2.71952 612 ft 121 kts 86°
2026-05-07 05:12 51.38323 -2.70332 637 ft 165 kts 87°
2026-05-07 05:12 51.38390 -2.68374 989 ft 182 kts 87°
2026-05-07 05:13 51.38452 -2.66353 1675 ft 187 kts 88°
2026-05-07 05:13 51.38518 -2.64177 2488 ft 212 kts 88°
2026-05-07 05:13 51.38596 -2.61651 3354 ft 242 kts 88°
2026-05-07 05:13 51.38686 -2.58797 4214 ft 272 kts 88°
2026-05-07 05:14 51.38498 -2.55657 5035 ft 301 kts 110°
2026-05-07 05:14 51.37301 -2.52796 5857 ft 328 kts 139°
2026-05-07 05:14 51.35215 -2.51015 6669 ft 355 kts 166°
2026-05-07 05:14 51.32799 -2.50912 7561 ft 357 kts 193°
2026-05-07 05:15 51.30506 -2.52628 8590 ft 374 kts 218°
2026-05-07 05:15 51.28886 -2.55729 9575 ft 366 kts 243°
2026-05-07 05:15 51.28271 -2.59624 10580 ft 365 kts 269°
2026-05-07 05:15 51.28775 -2.63556 11593 ft 366 kts 295°
2026-05-07 05:16 51.30259 -2.66960 12516 ft 381 kts 310°
2026-05-07 05:16 51.31955 -2.70271 13420 ft 394 kts 303°
2026-05-07 05:16 51.33254 -2.74199 14337 ft 405 kts 290°
2026-05-07 05:16 51.34079 -2.78512 15228 ft 415 kts 277°
2026-05-07 05:17 51.33980 -2.83179 16200 ft 422 kts 255°
2026-05-07 05:17 51.32836 -2.87383 17266 ft 416 kts 239°
2026-05-07 05:17 51.31467 -2.91470 17519 ft 422 kts 245°
2026-05-07 05:17 51.30287 -2.95848 17626 ft 422 kts 248°
2026-05-07 05:18 51.29222 -3.00142 18452 ft 421 kts 246°
2026-05-07 05:18 51.27892 -3.04385 19365 ft 427 kts 242°
2026-05-07 05:18 51.26523 -3.08607 20265 ft 433 kts 243°
2026-05-07 05:18 51.25149 -3.12925 21174 ft 438 kts 244°
2026-05-07 05:19 51.23770 -3.17287 22087 ft 443 kts 244°
2026-05-07 05:19 51.22396 -3.21643 22994 ft 446 kts 244°
2026-05-07 05:19 51.20997 -3.26074 23906 ft 449 kts 244°
2026-05-07 05:19 51.19590 -3.30523 24828 ft 451 kts 244°
2026-05-07 05:20 51.18118 -3.34944 25733 ft 453 kts 237°
2026-05-07 05:20 51.15962 -3.38626 26619 ft 455 kts 217°
2026-05-07 05:20 51.13171 -3.40871 27410 ft 456 kts 197°
2026-05-07 05:20 51.10004 -3.41444 28138 ft 459 kts 176°
2026-05-07 05:21 51.06923 -3.40339 28830 ft 459 kts 164°
2026-05-07 05:21 51.00611 -3.39250 30142 ft 458 kts 183°
2026-05-07 05:21 50.97434 -3.39592 30816 ft 456 kts 186°
2026-05-07 05:22 50.94268 -3.40084 31461 ft 454 kts 187°
2026-05-07 05:22 50.91106 -3.40619 31988 ft 455 kts 187°
2026-05-07 05:22 50.87951 -3.41162 32451 ft 455 kts 187°
2026-05-07 05:22 50.84811 -3.41702 32955 ft 454 kts 187°
2026-05-07 05:23 50.81670 -3.42242 33351 ft 455 kts 187°
2026-05-07 05:23 50.78519 -3.42784 33735 ft 455 kts 187°
2026-05-07 05:23 50.75372 -3.43325 34114 ft 455 kts 187°
2026-05-07 05:23 50.72205 -3.43868 34496 ft 454 kts 187°
2026-05-07 05:24 50.69060 -3.44407 34854 ft 454 kts 187°
2026-05-07 05:24 50.65902 -3.44777 35048 ft 454 kts 176°
2026-05-07 05:24 50.62750 -3.44187 35288 ft 454 kts 171°
2026-05-07 05:24 50.59613 -3.43386 35495 ft 454 kts 171°
2026-05-07 05:25 50.56487 -3.42631 35698 ft 454 kts 172°
2026-05-07 05:25 50.53370 -3.41927 35913 ft 454 kts 173°
2026-05-07 05:25 50.50246 -3.41242 36114 ft 450 kts 173°
2026-05-07 05:25 50.47138 -3.40568 36320 ft 446 kts 173°
2026-05-07 05:26 50.44087 -3.39908 36524 ft 446 kts 173°
2026-05-07 05:26 50.40982 -3.39238 36727 ft 446 kts 173°
2026-05-07 05:26 50.37916 -3.38576 36922 ft 445 kts 173°
2026-05-07 05:27 50.31797 -3.37258 36984 ft 444 kts 173°
2026-05-07 05:27 50.28716 -3.36596 36697 ft 441 kts 173°
2026-05-07 05:27 50.25684 -3.35945 36806 ft 439 kts 173°
2026-05-07 05:27 50.22658 -3.35297 36923 ft 437 kts 173°
2026-05-07 05:28 50.19659 -3.34654 36967 ft 437 kts 173°
2026-05-07 05:28 50.13574 -3.33354 36962 ft 439 kts 173°
2026-05-07 05:29 50.07509 -3.32062 36956 ft 439 kts 173°
2026-05-07 05:29 50.01493 -3.30783 36955 ft 440 kts 173°
2026-05-07 05:30 49.95433 -3.29498 36958 ft 440 kts 173°
2026-05-07 05:30 49.89364 -3.28214 36950 ft 440 kts 174°
2026-05-07 05:31 49.83290 -3.26936 36960 ft 439 kts 174°
2026-05-07 05:31 49.77249 -3.25476 36932 ft 440 kts 162°
2026-05-07 05:31 49.74536 -3.23297 36978 ft 438 kts 145°
2026-05-07 05:32 49.72080 -3.20503 36952 ft 440 kts 145°
2026-05-07 05:32 49.66941 -3.15247 36964 ft 440 kts 149°
2026-05-07 05:33 49.61686 -3.10350 36964 ft 442 kts 150°
2026-05-07 05:33 49.56385 -3.05470 36967 ft 442 kts 150°
2026-05-07 05:34 49.51100 -3.00615 36970 ft 443 kts 150°
2026-05-07 05:34 49.45810 -2.95766 36982 ft 443 kts 150°
2026-05-07 05:35 49.40500 -2.90913 36974 ft 444 kts 150°
2026-05-07 05:35 49.35146 -2.86031 36954 ft 444 kts 150°
2026-05-07 05:36 49.29845 -2.81210 36951 ft 443 kts 150°
2026-05-07 05:36 49.24525 -2.76383 36952 ft 443 kts 150°
2026-05-07 05:37 49.19181 -2.71549 36956 ft 443 kts 150°
2026-05-07 05:37 49.13891 -2.66774 36957 ft 443 kts 150°
2026-05-07 05:38 49.08581 -2.61993 36958 ft 443 kts 150°
2026-05-07 05:38 49.03180 -2.57143 36953 ft 452 kts 150°
2026-05-07 05:39 48.97716 -2.52249 36955 ft 457 kts 150°
2026-05-07 05:39 48.92113 -2.47540 36949 ft 458 kts 159°
2026-05-07 05:40 48.86134 -2.44184 36933 ft 459 kts 160°
2026-05-07 05:40 48.80157 -2.40728 36964 ft 459 kts 160°
2026-05-07 05:41 48.74153 -2.37182 36963 ft 460 kts 160°
2026-05-07 05:41 48.68167 -2.33645 36946 ft 461 kts 160°
2026-05-07 05:42 48.62175 -2.30101 36959 ft 460 kts 160°
2026-05-07 05:42 48.56195 -2.26591 36958 ft 460 kts 160°
2026-05-07 05:43 48.50217 -2.23093 36956 ft 460 kts 160°
2026-05-07 05:43 48.44228 -2.19597 36954 ft 460 kts 160°
2026-05-07 05:44 48.38199 -2.16088 36956 ft 460 kts 160°
2026-05-07 05:44 48.32195 -2.12601 36951 ft 460 kts 160°
2026-05-07 05:45 48.26183 -2.09119 36940 ft 461 kts 160°
2026-05-07 05:45 48.20202 -2.05668 36943 ft 461 kts 160°
2026-05-07 05:46 48.14180 -2.02198 36942 ft 461 kts 160°
2026-05-07 05:46 48.08148 -1.98731 36941 ft 461 kts 160°
2026-05-07 05:47 48.02179 -1.95309 36942 ft 461 kts 160°
2026-05-07 05:47 47.96123 -1.91846 36939 ft 461 kts 160°
2026-05-07 05:48 47.90152 -1.88440 36948 ft 460 kts 160°
2026-05-07 05:48 47.84117 -1.85017 36946 ft 460 kts 160°
2026-05-07 05:49 47.78131 -1.81623 36950 ft 460 kts 160°
2026-05-07 05:49 47.72111 -1.78214 36943 ft 460 kts 160°
2026-05-07 05:50 47.66092 -1.74815 36949 ft 460 kts 160°
2026-05-07 05:50 47.60124 -1.71452 36951 ft 460 kts 160°
2026-05-07 05:51 47.54128 -1.68082 36945 ft 460 kts 160°
2026-05-07 05:51 47.48112 -1.64709 36952 ft 460 kts 160°
2026-05-07 05:52 47.42098 -1.61345 36955 ft 460 kts 160°
2026-05-07 05:52 47.36099 -1.57998 36955 ft 460 kts 160°
2026-05-07 05:53 47.30078 -1.54647 36951 ft 460 kts 160°
2026-05-07 05:53 47.24063 -1.51307 36950 ft 460 kts 160°
2026-05-07 05:54 47.18075 -1.47991 36950 ft 460 kts 160°
2026-05-07 05:54 47.12042 -1.44658 36950 ft 460 kts 160°
2026-05-07 05:55 47.06024 -1.41341 36951 ft 460 kts 160°
2026-05-07 05:55 46.99989 -1.38022 36948 ft 460 kts 160°
2026-05-07 05:56 46.94465 -1.33349 36975 ft 461 kts 139°
2026-05-07 05:56 46.89774 -1.26866 36941 ft 464 kts 139°
2026-05-07 05:57 46.84943 -1.20512 36941 ft 464 kts 140°
2026-05-07 05:57 46.80109 -1.14233 36944 ft 465 kts 140°
2026-05-07 05:58 46.75232 -1.07907 36954 ft 465 kts 140°
2026-05-07 05:58 46.70387 -1.01637 36943 ft 465 kts 140°
2026-05-07 05:59 46.65511 -0.95343 36938 ft 466 kts 140°
2026-05-07 05:59 46.60644 -0.89076 36950 ft 466 kts 140°
2026-05-07 06:00 46.55754 -0.82794 36942 ft 466 kts 140°
2026-05-07 06:00 46.50888 -0.76534 36935 ft 465 kts 140°
2026-05-07 06:01 46.46029 -0.70286 36934 ft 465 kts 140°
2026-05-07 06:01 46.41054 -0.64301 36928 ft 463 kts 147°
2026-05-07 06:02 46.35721 -0.59057 36938 ft 463 kts 147°
2026-05-07 06:02 46.30374 -0.53753 36936 ft 463 kts 147°
2026-05-07 06:03 46.25049 -0.48447 36933 ft 463 kts 147°
2026-05-07 06:03 46.19732 -0.43161 36928 ft 464 kts 147°
2026-05-07 06:04 46.14373 -0.37847 36931 ft 464 kts 147°
2026-05-07 06:04 46.09025 -0.32547 36908 ft 464 kts 147°
2026-05-07 06:05 46.03693 -0.27266 36923 ft 464 kts 148°
2026-05-07 06:05 45.98342 -0.21996 36927 ft 464 kts 148°
2026-05-07 06:06 45.92996 -0.16744 36929 ft 464 kts 148°
2026-05-07 06:06 45.87620 -0.11483 36890 ft 465 kts 148°
2026-05-07 06:07 45.82262 -0.06263 36928 ft 464 kts 148°
2026-05-07 06:07 45.76879 -0.01015 36931 ft 465 kts 148°
2026-05-07 06:08 45.71493 0.04226 36935 ft 465 kts 148°
2026-05-07 06:08 45.66133 0.09429 36941 ft 465 kts 148°
2026-05-07 06:09 45.60754 0.14638 36937 ft 464 kts 148°
2026-05-07 06:09 45.55408 0.19804 36931 ft 464 kts 148°
2026-05-07 06:10 45.50063 0.24956 36929 ft 463 kts 148°
2026-05-07 06:10 45.44709 0.30105 36930 ft 463 kts 148°
2026-05-07 06:11 45.39328 0.35267 36930 ft 463 kts 148°
2026-05-07 06:11 45.35762 0.38682 36930 ft 463 kts 148°
2026-05-07 06:12 45.28646 0.45480 36930 ft 464 kts 148°
2026-05-07 06:12 45.23281 0.50592 36930 ft 464 kts 148°
2026-05-07 06:13 45.17918 0.55690 36931 ft 464 kts 148°
2026-05-07 06:13 45.12534 0.60795 36929 ft 464 kts 148°
2026-05-07 06:14 45.07282 0.66163 36922 ft 466 kts 146°
2026-05-07 06:14 45.02118 0.71703 36932 ft 465 kts 146°
2026-05-07 06:15 44.96917 0.77233 36929 ft 465 kts 146°
2026-05-07 06:15 44.91765 0.82689 36927 ft 465 kts 146°
2026-05-07 06:16 44.86519 0.88218 36906 ft 465 kts 146°
2026-05-07 06:16 44.81316 0.93690 36932 ft 465 kts 146°
2026-05-07 06:17 44.76116 0.99158 36930 ft 466 kts 146°
2026-05-07 06:17 44.70879 1.04654 36926 ft 466 kts 146°
2026-05-07 06:18 44.65633 1.10145 36928 ft 466 kts 146°
2026-05-07 06:18 44.60403 1.15608 36927 ft 466 kts 146°
2026-05-07 06:19 44.55185 1.21046 36924 ft 465 kts 146°
2026-05-07 06:19 44.49961 1.26477 36921 ft 464 kts 146°
2026-05-07 06:20 44.44747 1.31885 36921 ft 464 kts 146°
2026-05-07 06:20 44.39538 1.37276 36919 ft 464 kts 146°
2026-05-07 06:21 44.34301 1.42684 36919 ft 464 kts 146°
2026-05-07 06:21 44.29126 1.48016 36920 ft 464 kts 146°
2026-05-07 06:22 44.23879 1.53410 36920 ft 464 kts 147°
2026-05-07 06:22 44.16075 1.61410 36920 ft 464 kts 147°
2026-05-07 06:23 44.10873 1.66731 36901 ft 465 kts 147°
2026-05-07 06:23 44.05637 1.72093 36920 ft 464 kts 147°
2026-05-07 06:24 44.00442 1.77382 36921 ft 464 kts 147°
2026-05-07 06:24 43.97820 1.80045 36799 ft 467 kts 147°
2026-05-07 06:24 43.95158 1.82701 36440 ft 472 kts 151°
2026-05-07 06:25 43.92339 1.85041 36128 ft 460 kts 154°
2026-05-07 06:25 43.89597 1.87188 35819 ft 443 kts 154°
2026-05-07 06:25 43.86933 1.89286 35479 ft 433 kts 154°
2026-05-07 06:25 43.84338 1.91353 35115 ft 426 kts 153°
2026-05-07 06:26 43.81789 1.93397 34702 ft 420 kts 153°
2026-05-07 06:26 43.79264 1.95426 34147 ft 417 kts 153°
2026-05-07 06:26 43.76741 1.97452 33594 ft 416 kts 153°
2026-05-07 06:26 43.74250 1.99452 33050 ft 415 kts 153°
2026-05-07 06:27 43.71729 2.01475 32498 ft 412 kts 153°
2026-05-07 06:27 43.69260 2.03455 31946 ft 408 kts 153°
2026-05-07 06:27 43.66811 2.05416 31397 ft 404 kts 153°
2026-05-07 06:27 43.64399 2.07346 30850 ft 399 kts 152°
2026-05-07 06:28 43.62009 2.09257 30294 ft 395 kts 152°
2026-05-07 06:28 43.59656 2.11135 29739 ft 391 kts 152°
2026-05-07 06:28 43.57294 2.13020 29180 ft 386 kts 152°
2026-05-07 06:28 43.54987 2.14859 28644 ft 384 kts 152°
2026-05-07 06:29 43.52579 2.16773 28141 ft 405 kts 152°
2026-05-07 06:29 43.50146 2.18709 27603 ft 408 kts 151°
2026-05-07 06:29 43.47669 2.20680 27037 ft 404 kts 151°
2026-05-07 06:29 43.45252 2.22600 26507 ft 398 kts 151°
2026-05-07 06:30 43.42876 2.24486 25957 ft 394 kts 151°
2026-05-07 06:30 43.40506 2.26365 25410 ft 390 kts 151°
2026-05-07 06:30 43.38141 2.28238 24885 ft 390 kts 151°
2026-05-07 06:30 43.35775 2.30109 24360 ft 392 kts 150°
2026-05-07 06:31 43.33411 2.31978 23856 ft 393 kts 150°
2026-05-07 06:31 43.31027 2.33861 23386 ft 394 kts 150°
2026-05-07 06:31 43.28635 2.35749 22918 ft 396 kts 150°
2026-05-07 06:31 43.26232 2.37643 22446 ft 397 kts 150°
2026-05-07 06:32 43.23806 2.39555 21978 ft 399 kts 150°
2026-05-07 06:32 43.21382 2.41462 21508 ft 400 kts 150°
2026-05-07 06:32 43.18976 2.43354 21045 ft 401 kts 150°
2026-05-07 06:32 43.16533 2.45273 20574 ft 402 kts 150°
2026-05-07 06:33 43.14095 2.47186 20115 ft 403 kts 150°
2026-05-07 06:33 43.11661 2.49094 19653 ft 403 kts 150°
2026-05-07 06:33 43.09231 2.50998 19178 ft 393 kts 150°
2026-05-07 06:33 43.06893 2.52828 18723 ft 381 kts 150°
2026-05-07 06:34 43.04604 2.54618 18304 ft 371 kts 150°
2026-05-07 06:34 43.02404 2.56337 17895 ft 361 kts 150°
2026-05-07 06:34 43.00234 2.58031 17481 ft 352 kts 150°
2026-05-07 06:34 42.98119 2.59680 17075 ft 344 kts 150°
2026-05-07 06:35 42.96052 2.61291 16695 ft 338 kts 150°
2026-05-07 06:35 42.93985 2.62900 16324 ft 343 kts 150°
2026-05-07 06:35 42.91907 2.64516 15946 ft 344 kts 150°
2026-05-07 06:35 42.89813 2.66149 15554 ft 342 kts 151°
2026-05-07 06:36 42.87754 2.67752 15150 ft 340 kts 151°
2026-05-07 06:36 42.85696 2.69349 14769 ft 339 kts 151°
2026-05-07 06:36 42.83642 2.70942 14393 ft 337 kts 151°
2026-05-07 06:36 42.81580 2.72540 14016 ft 336 kts 151°
2026-05-07 06:37 42.79553 2.74110 13635 ft 335 kts 151°
2026-05-07 06:37 42.77535 2.75672 13259 ft 332 kts 151°
2026-05-07 06:37 42.75507 2.77240 12881 ft 330 kts 151°
2026-05-07 06:37 42.73503 2.78789 12510 ft 328 kts 151°
2026-05-07 06:38 42.71513 2.80325 12245 ft 325 kts 151°
2026-05-07 06:38 42.69535 2.81851 11995 ft 326 kts 151°
2026-05-07 06:38 42.67571 2.83366 11751 ft 324 kts 151°
2026-05-07 06:38 42.65590 2.84892 11500 ft 323 kts 151°
2026-05-07 06:39 42.63633 2.86399 11122 ft 319 kts 152°
2026-05-07 06:39 42.61730 2.87863 10746 ft 313 kts 152°
2026-05-07 06:39 42.59860 2.89301 10364 ft 308 kts 152°
2026-05-07 06:39 42.57994 2.90735 10077 ft 300 kts 152°
2026-05-07 06:40 42.56211 2.92104 9959 ft 287 kts 152°
2026-05-07 06:40 42.54512 2.93408 9997 ft 269 kts 152°
2026-05-07 06:40 42.52933 2.94620 10007 ft 252 kts 152°
2026-05-07 06:40 42.51448 2.95759 10011 ft 239 kts 152°
2026-05-07 06:41 42.49985 2.96878 10013 ft 240 kts 152°
2026-05-07 06:41 42.48472 2.97798 9952 ft 240 kts 169°
2026-05-07 06:41 42.46808 2.97851 9835 ft 238 kts 193°
2026-05-07 06:41 42.45202 2.97256 9573 ft 235 kts 197°
2026-05-07 06:42 42.43649 2.96642 9139 ft 233 kts 197°
2026-05-07 06:42 42.42089 2.96031 8741 ft 228 kts 197°
2026-05-07 06:42 42.40580 2.95442 8414 ft 226 kts 198°
2026-05-07 06:42 42.39045 2.94843 8096 ft 227 kts 198°
2026-05-07 06:43 42.37524 2.94252 7787 ft 226 kts 198°
2026-05-07 06:43 42.36016 2.93667 7488 ft 225 kts 197°
2026-05-07 06:43 42.34502 2.93080 7186 ft 224 kts 197°
2026-05-07 06:43 42.33010 2.92503 6899 ft 220 kts 197°
2026-05-07 06:44 42.31541 2.91936 6561 ft 215 kts 197°
2026-05-07 06:44 42.30130 2.91391 6216 ft 205 kts 197°
2026-05-07 06:44 42.28810 2.90882 5965 ft 185 kts 197°
2026-05-07 06:44 42.27564 2.90401 5834 ft 184 kts 197°
2026-05-07 06:45 42.26371 2.89941 5540 ft 169 kts 197°
2026-05-07 06:45 42.25294 2.89526 5266 ft 155 kts 197°
2026-05-07 06:45 42.24317 2.89150 5036 ft 140 kts 196°
2026-05-07 06:45 42.23358 2.88780 4892 ft 141 kts 196°
2026-05-07 06:46 42.22389 2.88407 4685 ft 142 kts 195°
2026-05-07 06:46 42.21431 2.88038 4478 ft 142 kts 195°
2026-05-07 06:46 42.20478 2.87672 4280 ft 142 kts 195°
2026-05-07 06:46 42.19521 2.87303 4076 ft 141 kts 195°
2026-05-07 06:47 42.18570 2.86938 3875 ft 141 kts 194°
2026-05-07 06:47 42.17623 2.86574 3674 ft 141 kts 194°
2026-05-07 06:47 42.16676 2.86211 3476 ft 140 kts 194°
2026-05-07 06:47 42.15735 2.85849 3275 ft 139 kts 194°
2026-05-07 06:48 42.14804 2.85492 3075 ft 139 kts 194°
2026-05-07 06:48 42.13869 2.85134 2872 ft 138 kts 194°
2026-05-07 06:48 42.12939 2.84777 2669 ft 138 kts 194°
2026-05-07 06:48 42.12010 2.84414 2490 ft 138 kts 194°
2026-05-07 06:49 42.11076 2.84045 2433 ft 137 kts 194°
2026-05-07 06:49 42.10154 2.83682 2470 ft 137 kts 194°
2026-05-07 06:49 42.09229 2.83318 2499 ft 137 kts 194°
2026-05-07 06:49 42.08302 2.82963 2497 ft 138 kts 194°
2026-05-07 06:50 42.07373 2.82610 2492 ft 137 kts 194°
2026-05-07 06:50 42.06437 2.82254 2488 ft 137 kts 194°
2026-05-07 06:50 42.05508 2.81901 2490 ft 137 kts 194°
2026-05-07 06:50 42.04593 2.81553 2491 ft 137 kts 194°
2026-05-07 06:51 42.03661 2.81198 2489 ft 137 kts 194°
2026-05-07 06:51 42.02737 2.80847 2491 ft 137 kts 194°
2026-05-07 06:51 42.01802 2.80489 2487 ft 137 kts 194°
2026-05-07 06:51 42.00881 2.80137 2470 ft 138 kts 194°
2026-05-07 06:52 41.99946 2.79785 2294 ft 138 kts 194°
2026-05-07 06:52 41.99029 2.79441 2070 ft 137 kts 194°
2026-05-07 06:52 41.98102 2.79093 1875 ft 137 kts 194°
2026-05-07 06:52 41.97173 2.78742 1687 ft 137 kts 195°
2026-05-07 06:53 41.96250 2.78395 1498 ft 137 kts 195°
2026-05-07 06:53 41.95325 2.78048 1309 ft 138 kts 196°
2026-05-07 06:53 41.94394 2.77696 1121 ft 137 kts 196°
2026-05-07 06:53 41.93469 2.77343 931 ft 137 kts 197°
2026-05-07 06:54 41.92559 2.76988 742 ft 136 kts 196°
2026-05-07 06:54 41.91637 2.76641 552 ft 136 kts 196°
2026-05-07 06:54 41.90736 2.76291 450 ft 134 kts 196°
2026-05-07 06:54 41.89913 2.75977 419 ft 92 kts 196°
2026-05-07 06:55 41.89585 2.75861 406 ft 10 kts 193°
2026-05-07 06:55 41.89563 2.75854 405 ft 13 kts 193°
2026-05-07 06:55 41.89467 2.75844 403 ft 8 kts 43°
2026-05-07 06:55 41.89480 2.75850 403 ft 4 kts 19°
2026-05-07 06:56 41.89510 2.75888 405 ft 7 kts 53°
2026-05-07 06:56 41.89531 2.75952 408 ft 9 kts 66°
2026-05-07 06:56 41.89575 2.76064 413 ft 15 kts 57°
2026-05-07 06:56 41.89656 2.76118 415 ft 15 kts 16°
2026-05-07 06:57 41.89783 2.76167 419 ft 20 kts 16°
2026-05-07 06:57 41.89904 2.76221 422 ft 12 kts 55°
2026-05-07 06:57 41.89892 2.76320 424 ft 10 kts 105°
2026-05-07 06:57 41.89889 2.76410 424 ft 9 kts 77°
2026-05-07 06:58 41.89894 2.76486 424 ft 4 kts 102°
2026-05-07 06:58 41.89893 2.76493 424 ft 0 kts 104°